1505710800.62,36810,13.31,73366.5,-4.27,-5.47,-5.47,0,*5D
1505710801.85,36811,13.31,73366.0,-4.27,-5.47,-5.55,0,*5F
1505710803.08,36812,13.31,73370.3,-4.27,-5.47,-5.47,0,*5F
1505710804.31,36813,13.31,73368.0,-4.27,-5.35,-5.47,0,*5B
1505710805.51,36814,13.31,73368.3,-4.25,-5.35,-5.47,0,*5E
1505710806.74,36815,13.31,73368.5,-4.27,-5.35,-5.43,0,*59
1505710807.97,36816,13.31,73372.8,-4.27,-5.35,-5.43,0,*5A
1505710809.22,36817,13.31,73372.3,-4.27,-5.31,-5.35,0,*5E
1505710810.42,36818,13.31,73372.5,-4.25,-5.35,-5.43,0,*56
1505710811.62,36819,13.31,73368.0,-4.25,-5.35,-5.35,0,*56
1505710812.82,36820,13.31,73362.3,-4.25,-5.35,-5.43,0,*5D
1505710814.03,36821,13.31,73366.8,-4.25,-5.35,-5.43,0,*5C
1505710815.25,36822,13.31,73372.3,-4.27,-5.35,-5.47,0,*59
1505710816.45,36823,13.31,73366.3,-4.25,-5.35,-5.47,0,*5A
1505710817.68,36824,13.31,73366.0,-4.27,-5.43,-5.43,0,*5A
1505710818.88,36825,13.31,73364.8,-4.25,-5.35,-5.43,0,*58
1505710820.08,36826,13.31,73362.8,-4.25,-5.43,-5.47,0,*5E
1505710821.3,36827,13.31,73366.0,-4.27,-5.43,-5.47,0,*5D
1505710822.5,36828,13.31,73362.8,-4.25,-5.43,-5.43,0,*54
1505710823.7,36829,13.31,73364.5,-4.25,-5.35,-5.47,0,*50
1505710824.95,36830,13.31,73370.0,-4.23,-5.31,-5.39,0,*53
1505710826.21,36831,13.31,73364.8,-4.23,-5.31,-5.39,0,*52
1505710827.41,36832,13.31,73366.5,-4.25,-5.43,-5.43,0,*5F
1505710828.64,36833,13.31,73374.0,-4.25,-5.31,-5.43,0,*5B
1505710829.86,36834,13.31,73372.3,-4.27,-5.35,-5.43,0,*5A
1505710831.07,36835,13.31,73370.8,-4.25,-5.35,-5.35,0,*58
1505710832.29,36836,13.31,73374.5,-4.25,-5.31,-5.43,0,*5E
1505710833.52,36837,13.31,73374.3,-4.27,-5.35,-5.35,0,*58
1505710834.75,36838,13.31,73378.8,-4.23,-5.39,-5.39,0,*53
1505710835.98,36839,13.31,73376.8,-4.23,-5.39,-5.51,0,*5C
1505710837.21,36840,13.31,73378.8,-4.23,-5.39,-5.51,0,*52
1505710838.44,36841,13.31,73374.8,-4.23,-5.39,-5.51,0,*53
1505710839.66,36842,13.31,73372.0,-4.23,-5.43,-5.51,0,*5D
1505710840.89,36843,13.31,73374.8,-4.21,-5.31,-5.43,0,*58
1505710842.12,36844,13.31,73368.5,-4.23,-5.43,-5.51,0,*5B
1505710843.34,36845,13.31,73370.3,-4.23,-5.39,-5.43,0,*54
1505710844.57,36846,13.31,73368.0,-4.23,-5.43,-5.51,0,*59
1505710845.78,36847,13.31,73360.3,-4.21,-5.43,-5.55,0,*5E
1505710847.0,36848,13.31,73358.8,-4.23,-5.43,-5.51,0,*57
1505710848.23,36849,13.31,73356.5,-4.23,-5.43,-5.51,0,*56
1505710849.46,36850,13.31,73360.8,-4.23,-5.39,-5.51,0,*53
1505710850.66,36851,13.31,73364.8,-4.21,-5.43,-5.51,0,*5D
1505710851.9,36852,13.31,73368.3,-4.23,-5.51,-5.55,0,*5B
1505710853.12,36853,13.31,73368.3,-4.23,-5.43,-5.55,0,*59
1505710854.35,36854,13.31,73368.8,-4.23,-5.39,-5.51,0,*57
1505710855.58,36855,13.31,73360.5,-4.23,-5.43,-5.43,0,*58
1505710856.8,36856,13.31,73356.8,-4.23,-5.43,-5.51,0,*58
1505710858.03,36857,13.31,73364.3,-4.23,-5.51,-5.51,0,*5A
1505710859.26,36858,13.31,73362.0,-4.23,-5.43,-5.55,0,*52
1505710860.48,36859,13.31,73366.3,-4.21,-5.51,-5.55,0,*52
1505710861.71,36860,13.31,73354.8,-4.23,-5.43,-5.55,0,*59
1505710862.94,36861,13.31,73354.0,-4.21,-5.51,-5.65,0,*5A
1505710864.19,36862,13.31,73348.0,-4.23,-5.51,-5.65,0,*5B
1505710865.42,36863,13.31,73358.5,-4.21,-5.43,-5.65,0,*5B
1505710866.66,36864,13.31,73364.0,-4.23,-5.51,-5.55,0,*5E
1505710867.94,36865,13.31,73368.0,-4.23,-5.65,-5.65,0,*5B
1505710869.17,36866,13.31,73366.0,-4.23,-5.55,-5.55,0,*58
1505710870.41,36867,13.31,73368.5,-4.23,-5.51,-5.55,0,*5D
1505710871.64,36868,13.31,73364.3,-4.23,-5.51,-5.55,0,*52
1505710872.88,36869,13.31,73366.5,-4.23,-5.51,-5.55,0,*53
1505710874.1,36870,13.31,73364.3,-4.23,-5.43,-5.43,0,*5F
1505710875.33,36871,13.31,73364.8,-4.23,-5.39,-5.43,0,*53
1505710876.58,36872,13.31,73368.5,-4.23,-5.31,-5.51,0,*5B
1505710877.81,36873,13.31,73372.0,-4.23,-5.39,-5.39,0,*5C
1505710879.04,36874,13.31,73368.0,-4.23,-5.39,-5.51,0,*55
1505710880.26,36875,13.31,73368.3,-4.23,-5.39,-5.43,0,*57
1505710881.5,36876,13.31,73368.8,-4.21,-5.31,-5.43,0,*5E
1505710882.7,36877,13.31,73370.8,-4.21,-5.39,-5.43,0,*57
1505710883.93,36878,13.31,73372.3,-4.23,-5.39,-5.51,0,*59
1505710885.13,36879,13.31,73368.3,-4.21,-5.43,-5.51,0,*57
1505710886.34,36880,13.31,73364.3,-4.21,-5.39,-5.43,0,*5F
1505710887.56,36881,13.31,73366.3,-4.23,-5.39,-5.43,0,*5C
1505710888.82,36882,13.31,73366.0,-4.23,-5.31,-5.43,0,*57
1505710890.05,36883,13.31,73364.3,-4.21,-5.31,-5.39,0,*59
1505710891.28,36884,13.31,73364.0,-4.23,-5.39,-5.39,0,*54
1505710892.53,36885,13.31,73360.3,-4.23,-5.27,-5.39,0,*5A
1505710893.76,36886,13.31,73362.3,-4.21,-5.31,-5.39,0,*5C
1505710894.97,36887,13.31,73362.3,-4.21,-5.39,-5.43,0,*58
1505710896.17,36888,13.31,73370.0,-4.21,-5.39,-5.39,0,*5A
1505710897.4,36889,13.31,73364.3,-4.21,-5.31,-5.39,0,*53
1505710898.64,36890,13.31,73364.0,-4.21,-5.31,-5.39,0,*5B
1505710899.87,36891,13.31,73366.5,-4.21,-5.31,-5.39,0,*5A
1505710901.08,36892,13.31,73370.0,-4.21,-5.39,-5.39,0,*51
1505710902.3,36893,13.31,73368.5,-4.19,-5.35,-5.47,0,*5E
1505710903.53,36894,13.31,73370.0,-4.19,-5.35,-5.39,0,*50
1505710904.76,36895,13.31,73372.3,-4.19,-5.39,-5.47,0,*54
1505710905.99,36896,13.31,73370.3,-4.19,-5.39,-5.39,0,*5E
1505710907.22,36897,13.31,73364.0,-4.19,-5.47,-5.51,0,*58
1505710908.46,36898,13.31,73354.5,-4.19,-5.47,-5.51,0,*57
1505710909.72,36899,13.31,73354.0,-4.19,-5.47,-5.61,0,*55
1505710910.95,36900,13.31,73364.0,-4.19,-5.51,-5.51,0,*50
1505710912.19,36901,13.31,73370.0,-4.19,-5.51,-5.51,0,*51
1505710913.42,36902,13.31,73366.0,-4.19,-5.39,-5.39,0,*52
1505710914.63,36903,13.31,73368.8,-4.21,-5.51,-5.51,0,*58
1505710915.86,36904,13.31,73364.5,-4.21,-5.55,-5.65,0,*5C
1505710917.1,36905,13.31,73370.0,-4.21,-5.55,-5.65,0,*5D
1505710918.32,36906,13.31,73368.3,-4.21,-5.51,-5.55,0,*59
1505710919.53,36907,13.31,73360.5,-4.21,-5.43,-5.55,0,*5B
1505710920.73,36908,13.31,73362.0,-4.21,-5.39,-5.51,0,*5D
1505710921.94,36909,13.31,73358.0,-4.21,-5.51,-5.51,0,*52
1505710923.18,36910,13.31,73368.0,-4.21,-5.51,-5.65,0,*5D
1505710924.44,36911,13.31,73364.3,-4.19,-5.51,-5.61,0,*53
1505710925.67,36912,13.31,73368.5,-4.19,-5.47,-5.51,0,*54
1505710926.9,36913,13.31,73370.8,-4.19,-5.39,-5.51,0,*5C
1505710928.13,36914,13.31,73368.3,-4.19,-5.39,-5.47,0,*5C
1505710929.36,36915,13.31,73366.3,-4.19,-5.35,-5.39,0,*58
1505710930.61,36916,13.31,73366.3,-4.19,-5.27,-5.39,0,*58
1505710931.87,36917,13.31,73364.5,-4.19,-5.27,-5.35,0,*55
1505710933.12,36918,13.31,73368.5,-4.19,-5.27,-5.35,0,*5A
1505710934.35,36919,13.31,73366.5,-4.19,-5.35,-5.35,0,*58
1505710935.58,36920,13.31,73356.8,-4.19,-5.35,-5.47,0,*57
1505710936.78,36921,13.31,73358.8,-4.17,-5.35,-5.43,0,*5C
1505710937.98,36922,13.31,73364.0,-4.17,-5.35,-5.47,0,*5B
1505710939.18,36923,13.31,73366.0,-4.17,-5.43,-5.43,0,*5F
1505710940.41,36924,13.31,73366.0,-4.19,-5.39,-5.39,0,*56
1505710941.64,36925,13.31,73370.0,-4.19,-5.39,-5.47,0,*5E
1505710942.87,36926,13.31,73366.5,-4.19,-5.47,-5.51,0,*53
1505710944.08,36927,13.31,73370.5,-4.17,-5.47,-5.47,0,*5B
1505710945.34,36928,13.31,73370.8,-4.19,-5.51,-5.61,0,*59
1505710946.62,36929,13.31,73368.5,-4.19,-5.61,-5.65,0,*5F
1505710947.88,36930,13.31,73370.0,-4.17,-5.81,-5.81,0,*5D
1505710949.16,36931,13.31,73360.5,-4.19,-5.77,-5.77,0,*52
1505710950.43,36932,13.31,73368.0,-4.19,-5.73,-5.77,0,*55
1505710951.7,36933,13.31,73364.3,-4.19,-5.65,-5.77,0,*53
1505710952.98,36934,13.31,73370.3,-4.19,-5.65,-5.77,0,*54
1505710954.26,36935,13.31,73368.5,-4.19,-5.65,-5.77,0,*55
1505710955.54,36936,13.31,73360.0,-4.19,-5.65,-5.77,0,*56
1505710956.81,36937,13.31,73374.3,-4.19,-5.65,-5.73,0,*53
1505710958.08,36938,13.31,73374.8,-4.19,-5.73,-5.73,0,*5B
1505710959.36,36939,13.31,73372.8,-4.19,-5.77,-5.77,0,*5A
1505710960.64,36940,13.31,73368.3,-4.19,-5.77,-5.77,0,*54
1505710961.9,36941,13.31,73362.5,-4.21,-5.77,-5.81,0,*57
1505710963.15,36942,13.31,73368.5,-4.21,-5.77,-5.81,0,*54
1505710964.41,36943,13.31,73370.8,-4.21,-5.69,-5.69,0,*5C
1505710965.65,36944,13.31,73376.3,-4.21,-5.51,-5.69,0,*50
1505710966.9,36945,13.31,73378.0,-4.19,-5.51,-5.65,0,*56
1505710968.17,36946,13.31,73378.3,-4.19,-5.51,-5.61,0,*51
1505710969.43,36947,13.31,73382.3,-4.19,-5.47,-5.61,0,*57
1505710970.66,36948,13.31,73378.3,-4.21,-5.55,-5.65,0,*54
1505710971.92,36949,13.31,73376.8,-4.21,-5.65,-5.69,0,*5A
1505710973.16,36950,13.31,73376.5,-4.21,-5.55,-5.65,0,*5D
1505710974.39,36951,13.31,73376.5,-4.21,-5.55,-5.65,0,*5C
1505710975.68,36952,13.31,73376.3,-4.19,-5.61,-5.61,0,*57
1505710976.94,36953,13.31,73378.0,-4.19,-5.51,-5.61,0,*55
1505710978.16,36954,13.31,73376.5,-4.21,-5.55,-5.55,0,*5A
1505710979.39,36955,13.31,73374.3,-4.21,-5.51,-5.65,0,*5C
1505710980.62,36956,13.31,73378.8,-4.19,-5.47,-5.51,0,*54
1505710981.86,36957,13.31,73374.3,-4.19,-5.47,-5.51,0,*55
1505710983.12,36958,13.31,73370.8,-4.19,-5.51,-5.61,0,*5E
1505710984.33,36959,13.31,73374.5,-4.17,-5.51,-5.51,0,*52
1505710985.54,36960,13.31,73374.8,-4.17,-5.43,-5.55,0,*5F
1505710986.8,36961,13.31,73370.3,-4.19,-5.47,-5.61,0,*53
1505710988.03,36962,13.31,73378.8,-4.19,-5.39,-5.51,0,*5A
1505710989.26,36963,13.31,73376.0,-4.19,-5.47,-5.51,0,*52
1505710990.52,36964,13.31,73382.8,-4.19,-5.47,-5.61,0,*56
1505710991.78,36965,13.31,73382.5,-4.19,-5.51,-5.61,0,*50
1505710993.05,36966,13.31,73380.3,-4.19,-5.51,-5.61,0,*53
1505710994.25,36967,13.31,73382.3,-4.17,-5.43,-5.47,0,*5B
1505710995.48,36968,13.31,73380.8,-4.19,-5.47,-5.47,0,*5E
1505710996.68,36969,13.31,73378.0,-4.17,-5.43,-5.47,0,*55
1505710997.91,36970,13.31,73380.5,-4.19,-5.39,-5.51,0,*59
1505710999.11,36971,13.31,73384.8,-4.17,-5.43,-5.47,0,*5C
1505711000.32,36972,13.31,73378.0,-4.17,-5.43,-5.55,0,*5C
1505711001.52,36973,13.31,73378.0,-4.17,-5.43,-5.47,0,*5E
1505711002.78,36974,13.31,73372.5,-4.19,-5.47,-5.61,0,*57
1505711004.04,36975,13.31,73364.0,-4.19,-5.51,-5.61,0,*51
1505711005.3,36976,13.31,73362.5,-4.19,-5.51,-5.61,0,*52
1505711006.51,36977,13.31,73368.0,-4.17,-5.35,-5.55,0,*58
1505711007.72,36978,13.31,73370.0,-4.17,-5.43,-5.47,0,*55
1505711008.95,36979,13.31,73368.8,-4.19,-5.47,-5.51,0,*59
1505711010.18,36980,13.31,73372.8,-4.19,-5.39,-5.51,0,*56
1505711011.41,36981,13.31,73372.8,-4.19,-5.47,-5.51,0,*5E
1505711012.68,36982,13.31,73378.3,-4.19,-5.47,-5.61,0,*5E
1505711013.88,36983,13.31,73382.8,-4.17,-5.43,-5.55,0,*52
1505711015.14,36984,13.31,73380.0,-4.19,-5.47,-5.61,0,*58
1505711016.38,36985,13.31,73372.8,-4.19,-5.47,-5.51,0,*5A
1505711017.58,36986,13.31,73378.3,-4.17,-5.35,-5.47,0,*55
1505711018.78,36987,13.31,73378.5,-4.17,-5.43,-5.47,0,*55
1505711019.98,36988,13.31,73378.0,-4.17,-5.43,-5.47,0,*5A
1505711021.19,36989,13.31,73382.3,-4.17,-5.35,-5.43,0,*5E
1505711022.39,36990,13.31,73382.0,-4.17,-5.35,-5.35,0,*57
1505711023.6,36991,13.31,73382.0,-4.17,-5.43,-5.55,0,*51
1505711024.84,36992,13.31,73378.5,-4.17,-5.55,-5.69,0,*5A
1505711026.09,36993,13.31,73380.5,-4.15,-5.47,-5.69,0,*5A
1505711027.33,36994,13.31,73376.0,-4.17,-5.55,-5.69,0,*5C
1505711028.6,36995,13.31,73382.0,-4.15,-5.55,-5.61,0,*57
1505711029.81,36996,13.31,73384.3,-4.17,-5.55,-5.55,0,*51
1505711031.02,36997,13.31,73382.5,-4.17,-5.43,-5.47,0,*54
1505711032.22,36998,13.31,73380.0,-4.17,-5.43,-5.55,0,*58
1505711033.42,36999,13.31,73382.8,-4.17,-5.43,-5.47,0,*5A
1505711034.63,37000,13.31,73378.3,-4.17,-5.43,-5.55,0,*51
1505711035.84,37001,13.31,73378.5,-4.17,-5.43,-5.55,0,*50
1505711037.05,37002,13.31,73378.0,-4.17,-5.47,-5.55,0,*57
1505711038.26,37003,13.31,73380.3,-4.17,-5.43,-5.55,0,*52
1505711039.46,37004,13.31,73380.8,-4.17,-5.43,-5.47,0,*56
1505711040.69,37005,13.31,73384.3,-4.15,-5.43,-5.55,0,*56
1505711041.95,37006,13.31,73380.8,-4.15,-5.31,-5.47,0,*53
1505711043.18,37007,13.31,73380.8,-4.15,-5.35,-5.47,0,*56
1505711044.41,37008,13.31,73382.8,-4.15,-5.35,-5.43,0,*5D
1505711045.63,37009,13.31,73384.3,-4.15,-5.35,-5.43,0,*5C
1505711046.86,37010,13.31,73378.8,-4.15,-5.43,-5.43,0,*55
1505711048.06,37011,13.31,73380.0,-4.17,-5.43,-5.47,0,*52
1505711049.29,37012,13.31,73380.8,-4.17,-5.47,-5.69,0,*59
1505711050.52,37013,13.31,73382.3,-4.15,-5.43,-5.55,0,*51
1505711051.72,37014,13.31,73382.0,-4.17,-5.43,-5.47,0,*57
1505711052.95,37015,13.31,73386.0,-4.15,-5.43,-5.47,0,*54
1505711054.17,37016,13.31,73384.3,-4.15,-5.43,-5.47,0,*57
1505711055.41,37017,13.31,73390.3,-4.15,-5.47,-5.55,0,*51
1505711056.64,37018,13.31,73384.3,-4.15,-5.47,-5.47,0,*5D
1505711057.9,37019,13.31,73386.8,-4.15,-5.55,-5.69,0,*53
1505711059.14,37020,13.31,73382.8,-4.13,-5.55,-5.65,0,*53
1505711060.42,37021,13.31,73382.8,-4.15,-5.69,-5.69,0,*57
1505711061.7,37022,13.31,73376.0,-4.15,-5.61,-5.73,0,*57
1505711062.97,37023,13.31,73378.5,-4.15,-5.61,-5.73,0,*56
1505711064.18,37024,13.31,73376.3,-4.13,-5.43,-5.55,0,*53
1505711065.42,37025,13.31,73380.3,-4.15,-5.47,-5.55,0,*50
1505711066.64,37026,13.31,73376.8,-4.15,-5.43,-5.47,0,*54
1505711067.87,37027,13.31,73378.3,-4.15,-5.43,-5.47,0,*55
1505711069.1,37028,13.31,73380.3,-4.13,-5.31,-5.43,0,*5D
1505711070.33,37029,13.31,73376.0,-4.15,-5.35,-5.47,0,*5A
1505711071.56,37030,13.31,73374.8,-4.15,-5.35,-5.47,0,*52
1505711072.76,37031,13.31,73372.3,-4.13,-5.39,-5.51,0,*5E
1505711074.0,37032,13.31,73374.0,-4.15,-5.47,-5.55,0,*56
1505711075.24,37033,13.31,73378.8,-4.15,-5.47,-5.55,0,*57
1505711076.5,37034,13.31,73382.3,-4.15,-5.47,-5.61,0,*57
1505711077.76,37035,13.31,73382.5,-4.15,-5.55,-5.61,0,*55
1505711079.02,37036,13.31,73380.3,-4.15,-5.47,-5.61,0,*55
1505711080.23,37037,13.31,73380.0,-4.13,-5.43,-5.55,0,*51
1505711081.46,37038,13.31,73382.0,-4.15,-5.47,-5.47,0,*5F
1505711082.7,37039,13.31,73386.0,-4.15,-5.35,-5.55,0,*58
1505711083.92,37040,13.31,73382.3,-4.15,-5.43,-5.47,0,*54
1505711085.13,37041,13.31,73390.5,-4.13,-5.39,-5.43,0,*5A
1505711086.37,37042,13.31,73388.3,-4.15,-5.47,-5.55,0,*51
1505711087.57,37043,13.31,73382.5,-4.13,-5.43,-5.51,0,*56
1505711088.79,37044,13.31,73378.5,-4.13,-5.51,-5.55,0,*56
1505711090.02,37045,13.31,73378.3,-4.13,-5.55,-5.65,0,*50
1505711091.31,37046,13.31,73386.3,-4.15,-5.69,-5.69,0,*56
1505711092.52,37047,13.31,73386.5,-4.13,-5.51,-5.55,0,*55
1505711093.78,37048,13.31,73380.3,-4.15,-5.47,-5.61,0,*5C
1505711094.99,37049,13.31,73378.5,-4.13,-5.43,-5.51,0,*5C
1505711096.19,37050,13.31,73382.0,-4.13,-5.43,-5.51,0,*54
1505711097.39,37051,13.31,73386.8,-4.13,-5.43,-5.43,0,*56
1505711098.63,37052,13.31,73382.8,-4.15,-5.47,-5.55,0,*50
1505711099.84,37053,13.31,73382.5,-4.13,-5.51,-5.51,0,*54
1505711101.07,37054,13.31,73382.0,-4.13,-5.51,-5.65,0,*54
1505711102.35,37055,13.31,73382.8,-4.15,-5.61,-5.69,0,*5C
1505711103.59,37056,13.31,73380.0,-4.13,-5.51,-5.65,0,*56
1505711104.79,37057,13.31,73386.8,-4.13,-5.43,-5.51,0,*53
1505711106.0,37058,13.31,73384.3,-4.13,-5.39,-5.43,0,*52
1505711107.2,37059,13.31,73388.8,-4.13,-5.39,-5.43,0,*53
1505711108.43,37060,13.31,73386.5,-4.15,-5.43,-5.47,0,*56
1505711109.63,37061,13.31,73394.3,-4.13,-5.39,-5.43,0,*58
1505711110.83,37062,13.38,73394.0,-4.13,-5.39,-5.43,0,*5B
1505711112.04,37063,13.31,73386.5,-4.13,-5.39,-5.43,0,*5A
1505711113.25,37064,13.31,73388.8,-4.13,-5.39,-5.51,0,*5E
1505711114.46,37065,13.31,73382.8,-4.13,-5.39,-5.51,0,*5F
1505711115.66,37066,13.31,73382.5,-4.13,-5.43,-5.51,0,*51
1505711116.87,37067,13.31,73388.8,-4.13,-5.43,-5.51,0,*50
1505711118.08,37068,13.31,73386.0,-4.13,-5.39,-5.51,0,*52
1505711119.28,37069,13.31,73384.3,-4.13,-5.39,-5.51,0,*53
1505711120.52,37070,13.31,73382.5,-4.13,-5.51,-5.65,0,*52
1505711121.73,37071,13.31,73386.3,-4.13,-5.51,-5.55,0,*50
1505711122.98,37072,13.31,73386.0,-4.15,-5.43,-5.69,0,*59
1505711124.26,37073,13.31,73382.5,-4.11,-5.65,-5.65,0,*54
1505711125.48,37074,13.31,73382.0,-4.13,-5.55,-5.55,0,*51
1505711126.74,37075,13.31,73376.0,-4.15,-5.55,-5.61,0,*51
1505711127.96,37076,13.31,73374.0,-4.13,-5.51,-5.55,0,*57
1505711129.19,37077,13.31,73380.5,-4.13,-5.51,-5.65,0,*55
1505711130.46,37078,13.31,73378.5,-4.15,-5.55,-5.61,0,*5C
1505711131.67,37079,13.31,73386.5,-4.13,-5.43,-5.55,0,*5B
1505711132.9,37080,13.31,73388.0,-4.13,-5.55,-5.65,0,*59
1505711134.14,37081,13.31,73382.3,-4.13,-5.55,-5.65,0,*58
1505711135.4,37082,13.31,73376.8,-4.13,-5.65,-5.65,0,*58
1505711136.61,37083,13.31,73376.0,-4.13,-5.51,-5.55,0,*5D
1505711137.83,37084,13.31,73372.3,-4.13,-5.51,-5.55,0,*5A
1505711139.04,37085,13.31,73384.8,-4.13,-5.51,-5.55,0,*5B
1505711140.26,37086,13.31,73384.0,-4.13,-5.51,-5.51,0,*5C
1505711141.46,37087,13.31,73386.0,-4.13,-5.43,-5.51,0,*5E
1505711142.67,37088,13.31,73376.8,-4.13,-5.39,-5.51,0,*5C
1505711143.87,37089,13.31,73374.0,-4.13,-5.43,-5.43,0,*53
1505711145.08,37090,13.31,73372.8,-4.09,-5.51,-5.51,0,*50
1505711146.3,37091,13.31,73378.8,-4.11,-5.43,-5.51,0,*5B
1505711147.53,37092,13.31,73380.5,-4.11,-5.39,-5.51,0,*55
1505711148.76,37093,13.31,73386.0,-4.11,-5.39,-5.51,0,*54
1505711150.01,37094,13.31,73382.5,-4.11,-5.31,-5.51,0,*5B
1505711151.24,37095,13.31,73384.3,-4.09,-5.31,-5.43,0,*50
1505711152.46,37096,13.31,73390.8,-4.11,-5.39,-5.43,0,*52
1505711153.69,37097,13.31,73384.5,-4.11,-5.39,-5.43,0,*53
1505711154.91,37098,13.31,73386.5,-4.11,-5.39,-5.51,0,*5F
1505711156.17,37099,13.31,73382.5,-4.11,-5.31,-5.51,0,*56
1505711157.39,37100,13.31,73376.8,-4.11,-5.43,-5.51,0,*52
1505711158.62,37101,13.31,73376.8,-4.11,-5.39,-5.51,0,*5E
1505711159.82,37102,13.31,73380.5,-4.09,-5.43,-5.43,0,*5A
1505711161.03,37103,13.31,73378.8,-4.11,-5.43,-5.43,0,*52
1505711162.27,37104,13.31,73376.8,-4.11,-5.51,-5.55,0,*51
1505711163.5,37105,13.31,73380.5,-4.11,-5.51,-5.55,0,*50
1505711164.74,37106,13.31,73386.5,-4.11,-5.51,-5.55,0,*53
1505711165.99,37107,13.31,73380.3,-4.11,-5.51,-5.65,0,*51
1505711167.22,37108,13.31,73380.0,-4.09,-5.51,-5.65,0,*57
1505711168.48,37109,13.31,73382.5,-4.11,-5.55,-5.65,0,*5B
1505711169.71,37110,13.31,73378.0,-4.11,-5.55,-5.55,0,*50
1505711170.95,37111,13.31,73382.8,-4.09,-5.55,-5.65,0,*5B
1505711172.2,37112,13.31,73388.3,-4.11,-5.55,-5.65,0,*51
1505711173.44,37113,13.31,73380.0,-4.11,-5.55,-5.55,0,*53
1505711174.67,37114,13.31,73376.8,-4.09,-5.55,-5.65,0,*5E
1505711175.94,37115,13.31,73384.8,-4.11,-5.69,-5.77,0,*5A
1505711177.22,37116,13.31,73384.5,-4.11,-5.69,-5.77,0,*59
1505711178.5,37117,13.31,73384.5,-4.11,-5.69,-5.69,0,*57
1505711179.77,37118,13.31,73390.3,-4.11,-5.65,-5.69,0,*54
1505711181.03,37119,13.31,73390.8,-4.13,-5.65,-5.69,0,*57
1505711182.25,37120,13.31,73388.0,-4.13,-5.55,-5.55,0,*51
1505711183.46,37121,13.38,73390.5,-4.13,-5.43,-5.55,0,*57
1505711184.74,37122,13.31,73376.8,-4.11,-5.65,-5.65,0,*51
1505711185.99,37123,13.31,73382.8,-4.11,-5.55,-5.69,0,*5F
1505711187.25,37124,13.31,73386.0,-4.13,-5.65,-5.69,0,*59
1505711188.51,37125,13.31,73380.3,-4.11,-5.55,-5.69,0,*59
1505711189.74,37126,13.31,73382.3,-4.11,-5.55,-5.55,0,*55
1505711191.02,37127,13.31,73384.0,-4.11,-5.65,-5.65,0,*54
1505711192.27,37128,13.31,73380.0,-4.11,-5.43,-5.65,0,*5F
1505711193.54,37129,13.31,73382.8,-4.11,-5.65,-5.65,0,*5A
1505711194.82,37130,13.38,73382.0,-4.11,-5.65,-5.65,0,*52
1505711196.08,37131,13.31,73368.3,-4.11,-5.55,-5.69,0,*5C
1505711197.36,37132,13.31,73368.3,-4.11,-5.65,-5.65,0,*50
1505711198.61,37133,13.31,73370.0,-4.11,-5.51,-5.65,0,*56
1505711199.86,37134,13.31,73370.8,-4.11,-5.51,-5.65,0,*51
1505711201.1,37135,13.31,73380.8,-4.13,-5.51,-5.65,0,*52
1505711202.35,37136,13.31,73380.3,-4.11,-5.55,-5.65,0,*57
1505711203.61,37137,13.31,73386.8,-4.11,-5.55,-5.69,0,*5A
1505711204.88,37138,13.31,73392.0,-4.11,-5.65,-5.77,0,*59
1505711206.16,37139,13.31,73390.8,-4.11,-5.65,-5.69,0,*57
1505711207.41,37140,13.31,73390.8,-4.09,-5.65,-5.69,0,*50
1505711208.69,37141,13.31,73394.5,-4.11,-5.65,-5.69,0,*58
1505711209.97,37142,13.31,73392.8,-4.11,-5.65,-5.69,0,*5B
1505711211.22,37143,13.31,73390.0,-4.11,-5.55,-5.69,0,*59
1505711212.48,37144,13.31,73388.5,-4.11,-5.55,-5.65,0,*52
1505711213.71,37145,13.31,73388.8,-4.11,-5.51,-5.55,0,*54
1505711214.97,37146,13.31,73386.5,-4.11,-5.51,-5.65,0,*54
1505711216.22,37147,13.31,73390.0,-4.11,-5.55,-5.65,0,*51
1505711217.48,37148,13.31,73390.8,-4.11,-5.55,-5.65,0,*5E
1505711218.72,37149,13.31,73388.3,-4.13,-5.55,-5.65,0,*5D
1505711220.0,37150,13.31,73390.3,-4.11,-5.65,-5.65,0,*54
1505711221.25,37151,13.31,73386.5,-4.11,-5.55,-5.65,0,*56
1505711222.49,37152,13.38,73388.5,-4.13,-5.55,-5.65,0,*57
1505711223.75,37153,13.31,73386.5,-4.13,-5.65,-5.65,0,*55
1505711224.98,37154,13.31,73386.5,-4.13,-5.55,-5.65,0,*51
1505711226.24,37155,13.31,73388.0,-4.11,-5.55,-5.65,0,*52
1505711227.5,37156,13.31,73388.5,-4.11,-5.55,-5.65,0,*51
1505711228.75,37157,13.38,73386.5,-4.11,-5.55,-5.65,0,*50
1505711230.03,37158,13.31,73386.0,-4.11,-5.65,-5.69,0,*50
1505711231.3,37159,13.31,73382.3,-4.11,-5.65,-5.77,0,*5E
1505711232.58,37160,13.31,73382.0,-4.11,-5.65,-5.69,0,*5B
1505711233.84,37161,13.31,73382.3,-4.13,-5.65,-5.69,0,*58
1505711235.11,37162,13.31,73384.0,-4.11,-5.69,-5.77,0,*5A
1505711236.38,37163,13.31,73380.0,-4.13,-5.81,-5.85,0,*52
1505711237.63,37164,13.31,73380.8,-4.13,-5.77,-5.81,0,*58
1505711238.91,37165,13.31,73374.3,-4.11,-5.65,-5.77,0,*51
1505711240.19,37166,13.31,73378.8,-4.11,-5.65,-5.69,0,*5D
1505711241.46,37167,13.31,73378.8,-4.11,-5.65,-5.69,0,*5C
1505711242.74,37168,13.38,73380.3,-4.11,-5.65,-5.69,0,*53
1505711243.99,37169,13.31,73384.0,-4.15,-5.47,-5.73,0,*5D
1505711245.27,37170,13.31,73380.3,-4.15,-5.61,-5.61,0,*52
1505711246.53,37171,13.31,73382.3,-4.13,-5.65,-5.65,0,*55
1505711247.77,37172,13.31,73384.0,-4.13,-5.51,-5.65,0,*51
1505711248.97,37173,13.31,73386.3,-4.13,-5.43,-5.55,0,*50
1505711250.18,37174,13.31,73386.8,-4.13,-5.43,-5.55,0,*57
1505711251.42,37175,13.31,73388.5,-4.13,-5.55,-5.65,0,*52
1505711252.68,37176,13.31,73386.8,-4.13,-5.65,-5.65,0,*52
1505711253.91,37177,13.31,73388.0,-4.13,-5.55,-5.65,0,*50
1505711255.17,37178,13.31,73390.3,-4.11,-5.55,-5.65,0,*5D
1505711256.43,37179,13.31,73392.5,-4.11,-5.55,-5.65,0,*5C
1505711257.7,37180,13.31,73386.8,-4.11,-5.65,-5.65,0,*59
1505711258.98,37181,13.31,73394.5,-4.11,-5.65,-5.69,0,*54
1505711260.26,37182,13.31,73390.5,-4.11,-5.65,-5.69,0,*57
1505711261.52,37183,13.38,73394.5,-4.11,-5.55,-5.65,0,*59
1505711262.75,37184,13.38,73396.3,-4.11,-5.51,-5.55,0,*59
1505711263.98,37185,13.31,73388.0,-4.11,-5.51,-5.55,0,*58
1505711265.22,37186,13.31,73388.0,-4.11,-5.51,-5.55,0,*5B
1505711266.43,37187,13.38,73390.3,-4.13,-5.43,-5.55,0,*5B
1505711267.64,37188,13.38,73394.3,-4.13,-5.51,-5.55,0,*57
1505711268.87,37189,13.31,73392.5,-4.11,-5.43,-5.51,0,*53
1505711270.09,37190,13.31,73388.5,-4.11,-5.43,-5.51,0,*5B
1505711271.32,37191,13.38,73390.8,-4.11,-5.39,-5.51,0,*57
1505711272.51,37192,13.31,73390.3,-4.09,-5.43,-5.43,0,*53
1505711273.74,37193,13.38,73390.8,-4.11,-5.43,-5.51,0,*58
1505711274.96,37194,13.31,73384.3,-4.11,-5.43,-5.43,0,*5C
1505711276.18,37195,13.38,73386.8,-4.11,-5.43,-5.51,0,*5E
1505711277.4,37196,13.31,73388.0,-4.11,-5.43,-5.51,0,*5D
1505711278.6,37197,13.38,73394.0,-4.09,-5.43,-5.51,0,*55
1505711279.83,37198,13.38,73388.8,-4.11,-5.39,-5.51,0,*5E
1505711281.03,37199,13.31,73390.5,-4.09,-5.43,-5.55,0,*5F
1505711282.25,37200,13.31,73390.0,-4.11,-5.43,-5.43,0,*52
1505711283.48,37201,13.31,73392.3,-4.11,-5.43,-5.51,0,*50
1505711284.68,37202,13.38,73394.3,-4.09,-5.39,-5.51,0,*57
1505711285.88,37203,13.38,73398.8,-4.09,-5.39,-5.51,0,*56
1505711287.11,37204,13.38,73392.0,-4.11,-5.39,-5.51,0,*58
1505711288.31,37205,13.38,73392.8,-4.09,-5.39,-5.43,0,*53
1505711289.51,37206,13.38,73394.0,-4.09,-5.39,-5.51,0,*53
1505711290.71,37207,13.31,73396.5,-4.09,-5.39,-5.51,0,*52
1505711291.91,37208,13.31,73398.0,-4.09,-5.43,-5.55,0,*54
1505711293.11,37209,13.31,73394.5,-4.09,-5.43,-5.51,0,*51
1505711294.36,37210,13.31,73388.0,-4.11,-5.51,-5.65,0,*54
1505711295.57,37211,13.31,73380.8,-4.09,-5.43,-5.55,0,*5C
1505711296.77,37212,13.38,73376.8,-4.09,-5.43,-5.55,0,*5F
1505711297.97,37213,13.31,73380.0,-4.05,-5.39,-5.47,0,*5C
1505711299.18,37214,13.31,73388.5,-4.05,-5.35,-5.47,0,*57
1505711300.38,37215,13.31,73390.8,-4.05,-5.35,-5.47,0,*56
1505711301.59,37216,13.38,73392.3,-4.05,-5.39,-5.51,0,*5E
1505711302.8,37217,13.38,73392.8,-4.05,-5.39,-5.51,0,*5F
1505711304.0,37218,13.31,73392.3,-4.05,-5.35,-5.47,0,*5B
1505711305.2,37219,13.31,73398.3,-4.05,-5.35,-5.39,0,*53
1505711306.41,37220,13.38,73394.8,-4.05,-5.35,-5.39,0,*59
1505711307.61,37221,13.31,73394.3,-4.05,-5.35,-5.47,0,*51
1505711308.82,37222,13.38,73396.5,-4.05,-5.47,-5.47,0,*57
1505711310.02,37223,13.31,73394.8,-4.05,-5.39,-5.47,0,*5F